Skip Page Navigation
NASA JPL Caltech
NASA Logo - Jet Propulsion Laboratory + View the NASA Portal
+ Near-Earth Object (NEO) Program
Search JPL
JPL Home Earth Solar System Stars & Galaxies Technology
JPL Solar System Dynamics
BODIES ORBITS EPHEMERIDES TOOLS PHYSICAL DATA DISCOVERY FAQ SITE MAP
JPL Small-Body Database Browser
Search: [ help ]  
23096 Mihika (1999 XT156)
Classification: Main-belt Asteroid          SPK-ID: 2023096
Ephemeris | Orbit Diagram | Orbital Elements | Physical Parameters | Discovery Circumstances ]

[ show orbit diagram ]
Orbital Elements at Epoch 2456400.5 (2013-Apr-18.0) TDB
Reference: MPO253521 (heliocentric ecliptic J2000)
 Element Value Uncertainty (1-sigma)   Units 
e 0.1250277 n/a  
a 2.2510936 n/a AU
q 1.9696445 n/a AU
i 5.15629 n/a deg
node 113.52387 n/a deg
peri 153.64132 n/a deg
M 158.56487 n/a deg
tp 2455857.1330335
(2011-Oct-22.63303350)
n/a JED
period 1233.6408937
3.38
n/a
n/a
d
yr
n 0.29181912 n/a deg/d
Q 2.5325427 n/a AU
  Orbit Determination Parameters
   # obs. used (total)      686  
   first obs. used      1997-??-??  
   last obs. used      2013-02-09  
   # oppositions      12  
   planetary ephem.      DE403  
   condition code      0  
   fit RMS      0.54  
   data source      MPC:mpn  
   producer      MPCLINUX  

Additional Information
 T_jup = 3.611 

Ephemeris | Orbit Diagram | Orbital Elements | Physical Parameters | Discovery Circumstances ]

Physical Parameter Table
Parameter Symbol Value Units Sigma Reference Notes
absolute magnitude H 15.4 mag n/a PDS3 (MPO 10209)  

23096 Mihika           Discovered 1999 Dec. 8 by the Lincoln Laboratory Near-Earth Asteroid Research Team in Socorro.
Mihika Pradhan (b. 1990) was awarded first place and Best in Category in the 2007 Intel International Science and Engineering Fair for her biochemistry project. She attends the Hamilton-Wenham Regional High School, South Hamilton, Massachusetts, U.S.A.
NOTE: some special characters may not display properly (any characters within {} are an attempt to place the proper accent above a character)
Reference: 20070828/MPCPages.arcLast Updated: 2007-08-30
Ephemeris | Orbit Diagram | Orbital Elements | Physical Parameters | Discovery Circumstances ]
ABOUT SSD CREDITS/AWARDS PRIVACY/COPYRIGHT GLOSSARY LINKS
FirstGov 2013-May-20 17:11 UT
(server date/time)  
NASA Home Page
Site Manager:   Donald K. Yeomans
Webmaster  Alan B. Chamberlin